Regional Weather Roundup
Issued by NWS Goodland, KS

Home | Current Version | Previous Version | Text Only | Print | Product List | Glossary Off
Versions: 1 2 3 4 5 6 7 8 9 10 11 12 13 14 15 16 17 18 19 20 21 22 23 24 25 26 27 28 29 30 31 32 33 34 35 36 37 38 39 40 41 42 43 44 45 46 47 48 49 50

000
ASUS43 KGLD 271459
RWRGLD

GOODLAND FORECAST AREA HOURLY WEATHER ROUNDUP
NATIONAL WEATHER SERVICE GOODLAND KS
900 AM MDT WED JUL 27 2016

...OFFICIAL OBSERVATIONS...

CITY           SKY/WX    TMP DP  RH WIND       PRES   REMARKS
GOODLAND KS    MOSUNNY   72  64  76 S15       30.12S
HILL CITY KS   CLOUDY    77  62  59 CALM      30.04R
IMPERIAL NEB   SUNNY     71  60  68 SW9       30.11F
MCCOOK NEB     SUNNY     72  60  66 W6        30.07S
AKRON CO       SUNNY     73  57  57 SW6       30.19R
BURLINGTON CO  FOG       65  62  90 S13       30.16R VSB 1
LIMON CO       SUNNY     76  56  49 SW14      30.20F
$$

...UNOFFICIAL OBSERVATIONS...

CITY           SKY/WX    TMP DP  RH WIND       PRES   REMARKS
COLBY KS       SUNNY     79  68  69 S9        30.10S
LENORA KS        N/A     77  32  19 MISG        N/A
NORTON KS      SUNNY     75  55  50 CALM      30.04F
KIT CARSON CO    N/A     70  62  77 CALM        N/A
YUMA CO          N/A     69  63  81 CALM        N/A
$$




USA.gov is the U.S. government's official web portal to all federal, state and local government web resources and services.